Location: Newark
(7.1028°S, 35.3258°W)
Time: 20:01:31
(UTC+00:00)

Hubble Space Telescope - Pass Details

Date: 23 January 2020
Orbit: 536 x 540 km, 28.5° (Epoch: 19 February)

Event Time Altitude Azimuth Distance (km) Brightness Sun altitude
Rises 21:51:10 0° 273° (W) 2,676 5.5 -15.8°
Reaches altitude 10° 21:53:48 10° 257° (WSW) 1,786 4.7 -16.4°
Maximum altitude 21:57:03 22° 205° (SSW) 1,193 3.1 -17.1°
Drops below altitude 10° 22:00:20 10° 153° (SSE) 1,789 3.4 -17.8°
Enters shadow 22:02:12 - 141° (SE) 2,408 3.9 -18.3°
